| time (UTC) | temp F | wind direction | speed MPH | gust MPH | rain 1hr in | rain 24hr in | rain mn in | humidity % | barometer mb |
| 20260503190043 | 42 | 300 | 2.0 | 8.0 | 0.04 | 0.37 | 0.36 | 84 | 1002.4 |
| 20260503184540 | 42 | 28 | 0.0 | 0.0 | 0.03 | 0.36 | 0.35 | 84 | 1002.6 |
| 20260503183053 | 42 | 294 | 1.0 | 7.0 | 0.02 | 0.34 | 0.33 | 83 | 1002.7 |
| 20260503181549 | 42 | 337 | 0.0 | 4.0 | 0.02 | 0.34 | 0.33 | 83 | 1002.8 |
| 20260503180038 | 42 | 336 | 1.0 | 6.0 | 0.02 | 0.33 | 0.32 | 83 | 1002.5 |
| 20260503174537 | 41 | 344 | 0.0 | 4.0 | 0.03 | 0.33 | 0.32 | 83 | 1002.4 |
| 20260503173034 | 41 | 326 | 3.0 | 7.0 | 0.03 | 0.32 | 0.31 | 83 | 1002.6 |
| 20260503171533 | 41 | 30 | 2.0 | 5.0 | 0.04 | 0.32 | 0.31 | 83 | 1002.7 |
| 20260503081534 | 40 | 181 | 0.0 | 0.0 | 0.00 | 0.03 | 0.02 | 85 | 1007.6 |
| 20260503071534 | 40 | 181 | 0.0 | 0.0 | 0.01 | 0.03 | 0.02 | 84 | 1008.0 |
| 20260503054519 | 40 | 181 | 0.0 | 0.0 | 0.01 | 0.02 | 0.01 | 83 | 1008.6 |
| 20260503053019 | 40 | 181 | 0.0 | 0.0 | 0.00 | 0.01 | 0.00 | 83 | 1008.8 |
| 20260503051525 | 40 | 181 | 0.0 | 0.0 | 0.00 | 0.01 | 0.00 | 83 | 1008.8 |
| 20260503050021 | 40 | 181 | 0.0 | 0.0 | 0.00 | 0.01 | 0.00 | 83 | 1009.1 |
| 20260503044520 | 40 | 181 | 0.0 | 0.0 | 0.00 | 0.01 | 0.00 | 83 | 1009.2 |
| 20260503043012 | 40 | 181 | 0.0 | 0.0 | 0.00 | 0.01 | 0.00 | 82 | 1009.4 |
| 20260503041511 | 40 | 181 | 0.0 | 0.0 | 0.00 | 0.01 | 0.00 | 82 | 1009.6 |
| 20260503040009 | 40 | 181 | 0.0 | 0.0 | 0.00 | 0.01 | 0.01 | 82 | 1009.7 |
| 20260503034508 | 40 | 181 | 0.0 | 0.0 | 0.00 | 0.01 | 0.01 | 82 | 1009.8 |
| 20260503033007 | 40 | 181 | 0.0 | 0.0 | 0.00 | 0.01 | 0.01 | 82 | 1009.9 |
| 20260503031507 | 40 | 181 | 0.0 | 0.0 | 0.00 | 0.01 | 0.01 | 82 | 1009.9 |
| 20260503030006 | 41 | 181 | 0.0 | 0.0 | 0.00 | 0.01 | 0.01 | 81 | 1009.9 |
| 20260503024506 | 41 | 181 | 0.0 | 0.0 | 0.00 | 0.01 | 0.01 | 82 | 1010.1 |
| 20260503023006 | 41 | 181 | 0.0 | 0.0 | 0.00 | 0.01 | 0.01 | 81 | 1010.1 |
| 20260503021505 | 41 | 181 | 0.0 | 0.0 | 0.00 | 0.01 | 0.01 | 81 | 1010.2 |
| 20260503020005 | 41 | 181 | 0.0 | 0.0 | 0.00 | 0.01 | 0.01 | 82 | 1010.3 |
| 20260503014504 | 41 | 181 | 0.0 | 0.0 | 0.00 | 0.01 | 0.01 | 82 | 1010.5 |
| 20260503013004 | 41 | 183 | 0.0 | 0.0 | 0.00 | 0.01 | 0.01 | 82 | 1010.5 |
| 20260503011503 | 41 | 183 | 0.0 | 0.0 | 0.00 | 0.01 | 0.01 | 82 | 1010.6 |
| 20260503010003 | 41 | 183 | 0.0 | 0.0 | 0.00 | 0.01 | 0.01 | 81 | 1010.7 |
| 20260503004503 | 41 | 183 | 0.0 | 0.0 | 0.00 | 0.01 | 0.01 | 81 | 1010.8 |
| 20260503003001 | 41 | 183 | 0.0 | 0.0 | 0.00 | 0.01 | 0.01 | 81 | 1010.7 |
| 20260503001501 | 42 | 183 | 0.0 | 0.0 | 0.00 | 0.01 | 0.01 | 81 | 1010.7 |
| 20260503000001 | 42 | 177 | 0.0 | 5.0 | 0.01 | 0.01 | 0.01 | 81 | 1010.6 |
| 20260502234603 | 42 | 184 | 1.0 | 4.0 | 0.01 | 0.01 | 0.01 | 81 | 1010.6 |
| 20260502233102 | 42 | 180 | 0.0 | 4.0 | 0.01 | 0.01 | 0.01 | 80 | 1010.6 |
| 20260502231559 | 42 | 188 | 0.0 | 4.0 | 0.01 | 0.01 | 0.01 | 79 | 1010.6 |
| 20260502230059 | 43 | 180 | 0.0 | 7.0 | 0.00 | 0.00 | 0.00 | 78 | 1010.6 |
| 20260502224605 | 44 | 181 | 0.0 | 6.0 | 0.00 | 0.00 | 0.00 | 77 | 1010.6 |
| 20260502223058 | 44 | 185 | 1.0 | 7.0 | 0.00 | 0.00 | 0.00 | 74 | 1010.6 |
| 20260502221557 | 45 | 167 | 0.0 | 6.0 | 0.00 | 0.00 | 0.00 | 72 | 1010.6 |
| 20260502220057 | 45 | 190 | 0.0 | 7.0 | 0.00 | 0.00 | 0.00 | 73 | 1010.6 |
| 20260502214619 | 46 | 183 | 1.0 | 7.0 | 0.00 | 0.00 | 0.00 | 68 | 1010.6 |
| 20260502213059 | 46 | 185 | 0.0 | 8.0 | 0.00 | 0.00 | 0.00 | 67 | 1010.6 |
| 20260502211604 | 47 | 164 | 4.0 | 10.0 | 0.00 | 0.00 | 0.00 | 63 | 1010.5 |
| 20260502210056 | 47 | 194 | 2.0 | 11.0 | 0.00 | 0.00 | 0.00 | 61 | 1010.4 |
| 20260502204553 | 48 | 184 | 5.0 | 13.0 | 0.00 | 0.00 | 0.00 | 57 | 1010.3 |
| 20260502203106 | 48 | 175 | 3.0 | 12.0 | 0.00 | 0.00 | 0.00 | 56 | 1010.3 |
| 20260502201605 | 49 | 175 | 2.0 | 9.0 | 0.00 | 0.00 | 0.00 | 56 | 1010.1 |
| 20260502200052 | 49 | 171 | 3.0 | 9.0 | 0.00 | 0.00 | 0.00 | 54 | 1010.1 |
| 20260502194557 | 50 | 185 | 0.0 | 6.0 | 0.00 | 0.00 | 0.00 | 52 | 1010.0 |
| 20260502193052 | 51 | 192 | 1.0 | 9.0 | 0.00 | 0.00 | 0.00 | 49 | 1010.0 |
| 20260502191551 | 51 | 178 | 2.0 | 7.0 | 0.00 | 0.00 | 0.00 | 48 | 1010.0 |